UGD409 HKJK-HKMO

Flight info

Callsign UGD409
Flight time 0h 48m
Altitude 29000
Route ATUDU1D UVOVA UQ135 NEREV NEREV3A
Aircraft A339/H-SADE1E2E3GHIJ3J5M1P2RWXY/LB2D1

Departure

Time 2026-04-16 08:16
Airport Jomo Kenyatta International Airport (HKJK)

Arrival

Time 2026-04-16 09:04
Airport Moi International Airport (HKMO)
Time Latitude Longitude Altitude Speed Heading
2026-04-16 07:53 -1.32876 36.92421 5330 ft 0 kts 155°
2026-04-16 08:06 -1.32859 36.92413 5338 ft 3 kts 155°
2026-04-16 08:06 -1.32834 36.92402 5336 ft 3 kts 155°
2026-04-16 08:07 -1.32815 36.92392 5336 ft 3 kts 179°
2026-04-16 08:07 -1.32795 36.92393 5336 ft 4 kts 226°
2026-04-16 08:07 -1.32779 36.92413 5335 ft 4 kts 247°
2026-04-16 08:07 -1.32773 36.92427 5334 ft 1 kts 248°
2026-04-16 08:08 -1.32773 36.92428 5331 ft 0 kts 248°
2026-04-16 08:10 -1.32775 36.92422 5331 ft 2 kts 248°
2026-04-16 08:10 -1.32782 36.92406 5336 ft 3 kts 248°
2026-04-16 08:10 -1.32792 36.92381 5336 ft 5 kts 246°
2026-04-16 08:10 -1.32811 36.92349 5333 ft 6 kts 238°
2026-04-16 08:11 -1.32840 36.92311 5336 ft 8 kts 231°
2026-04-16 08:11 -1.32846 36.92263 5334 ft 7 kts 283°
2026-04-16 08:11 -1.32814 36.92222 5336 ft 8 kts 313°
2026-04-16 08:11 -1.32791 36.92172 5337 ft 7 kts 277°
2026-04-16 08:12 -1.32804 36.92135 5337 ft 5 kts 246°
2026-04-16 08:12 -1.32820 36.92111 5339 ft 4 kts 234°
2026-04-16 08:12 -1.32842 36.92080 5339 ft 7 kts 234°
2026-04-16 08:12 -1.32878 36.92032 5339 ft 10 kts 232°
2026-04-16 08:13 -1.32900 36.91966 5339 ft 9 kts 272°
2026-04-16 08:13 -1.32893 36.91915 5342 ft 6 kts 278°
2026-04-16 08:13 -1.32886 36.91875 5342 ft 6 kts 279°
2026-04-16 08:13 -1.32879 36.91836 5345 ft 6 kts 279°
2026-04-16 08:14 -1.32875 36.91794 5344 ft 6 kts 272°
2026-04-16 08:14 -1.32872 36.91749 5343 ft 6 kts 282°
2026-04-16 08:14 -1.32845 36.91710 5346 ft 7 kts 311°
2026-04-16 08:14 -1.32803 36.91675 5346 ft 8 kts 323°
2026-04-16 08:15 -1.32752 36.91664 5345 ft 7 kts
2026-04-16 08:15 -1.32720 36.91692 5346 ft 0 kts 51°
2026-04-16 08:15 -1.32557 36.91913 5340 ft 81 kts 54°
2026-04-16 08:16 -1.32081 36.92566 5320 ft 150 kts 53°
2026-04-16 08:16 -1.31364 36.93541 5545 ft 186 kts 54°
2026-04-16 08:16 -1.30556 36.94642 5999 ft 208 kts 55°
2026-04-16 08:16 -1.29707 36.95882 6557 ft 224 kts 57°
2026-04-16 08:17 -1.29411 36.96311 6794 ft 220 kts 55°
2026-04-16 08:17 -1.25968 37.00749 8280 ft 265 kts 52°
2026-04-16 08:18 -1.24814 37.02251 8604 ft 277 kts 53°
2026-04-16 08:19 -1.28434 37.15573 11231 ft 345 kts 127°
2026-04-16 08:20 -1.30037 37.17380 11396 ft 348 kts 131°
2026-04-16 08:20 -1.31719 37.19125 11558 ft 349 kts 133°
2026-04-16 08:20 -1.33448 37.20872 11723 ft 350 kts 133°
2026-04-16 08:20 -1.35156 37.22570 11885 ft 351 kts 134°
2026-04-16 08:21 -1.36901 37.24290 12053 ft 352 kts 134°
2026-04-16 08:21 -1.38650 37.26012 12232 ft 353 kts 134°
2026-04-16 08:21 -1.39813 37.27157 12341 ft 353 kts 134°
2026-04-16 08:23 -1.50798 37.37972 13410 ft 359 kts 134°
2026-04-16 08:23 -1.52569 37.39717 13581 ft 360 kts 134°
2026-04-16 08:23 -1.54366 37.41492 13764 ft 362 kts 134°
2026-04-16 08:23 -1.56145 37.43247 13934 ft 362 kts 134°
2026-04-16 08:24 -1.57955 37.45032 14093 ft 363 kts 134°
2026-04-16 08:24 -1.59769 37.46821 14245 ft 363 kts 134°
2026-04-16 08:24 -1.61552 37.48581 14404 ft 364 kts 134°
2026-04-16 08:24 -1.63357 37.50362 14559 ft 365 kts 134°
2026-04-16 08:25 -1.65167 37.52148 14720 ft 366 kts 134°
2026-04-16 08:25 -1.66972 37.53930 14877 ft 366 kts 134°
2026-04-16 08:25 -1.68793 37.55728 15039 ft 367 kts 134°
2026-04-16 08:25 -1.70610 37.57523 15196 ft 368 kts 134°
2026-04-16 08:26 -1.72442 37.59333 15356 ft 368 kts 134°
2026-04-16 08:26 -1.74266 37.61135 15518 ft 369 kts 134°
2026-04-16 08:26 -1.76091 37.62936 15685 ft 371 kts 134°
2026-04-16 08:26 -1.77842 37.64666 15838 ft 371 kts 134°
2026-04-16 08:27 -1.79662 37.66473 16005 ft 372 kts 134°
2026-04-16 08:27 -1.81507 37.68315 16165 ft 373 kts 134°
2026-04-16 08:27 -1.83341 37.70149 16332 ft 374 kts 134°
2026-04-16 08:27 -1.85181 37.71987 16499 ft 375 kts 134°
2026-04-16 08:28 -1.87035 37.73836 16671 ft 376 kts 134°
2026-04-16 08:28 -1.88894 37.75690 16832 ft 377 kts 134°
2026-04-16 08:28 -1.90731 37.77521 17009 ft 378 kts 134°
2026-04-16 08:28 -1.92618 37.79402 17176 ft 379 kts 134°
2026-04-16 08:29 -1.94460 37.81239 17348 ft 379 kts 134°
2026-04-16 08:29 -1.96328 37.83101 17517 ft 381 kts 134°
2026-04-16 08:29 -1.98214 37.84980 17693 ft 382 kts 134°
2026-04-16 08:29 -2.00092 37.86853 17864 ft 383 kts 134°
2026-04-16 08:30 -2.01984 37.88739 18049 ft 384 kts 134°
2026-04-16 08:30 -2.03880 37.90630 18218 ft 385 kts 134°
2026-04-16 08:30 -2.05789 37.92535 18391 ft 386 kts 134°
2026-04-16 08:30 -2.07693 37.94435 18536 ft 387 kts 134°
2026-04-16 08:31 -2.09572 37.96311 18688 ft 388 kts 134°
2026-04-16 08:31 -2.11481 37.98216 18842 ft 388 kts 134°
2026-04-16 08:31 -2.13399 38.00131 18998 ft 389 kts 134°
2026-04-16 08:31 -2.15314 38.02042 19146 ft 390 kts 134°
2026-04-16 08:32 -2.17237 38.03962 19298 ft 390 kts 134°
2026-04-16 08:32 -2.19161 38.05883 19453 ft 391 kts 134°
2026-04-16 08:32 -2.21093 38.07813 19611 ft 392 kts 134°
2026-04-16 08:32 -2.23021 38.09738 19763 ft 393 kts 134°
2026-04-16 08:33 -2.24951 38.11666 19926 ft 393 kts 134°
2026-04-16 08:33 -2.26896 38.13607 20081 ft 394 kts 134°
2026-04-16 08:33 -2.28838 38.15543 20239 ft 395 kts 135°
2026-04-16 08:33 -2.30788 38.17489 20403 ft 396 kts 135°
2026-04-16 08:34 -2.32735 38.19433 20560 ft 396 kts 135°
2026-04-16 08:34 -2.34664 38.21359 20719 ft 397 kts 135°
2026-04-16 08:34 -2.36626 38.23317 20898 ft 399 kts 135°
2026-04-16 08:34 -2.38584 38.25273 21321 ft 400 kts 135°
2026-04-16 08:35 -2.40567 38.27254 21791 ft 402 kts 135°
2026-04-16 08:35 -2.42554 38.29237 22178 ft 404 kts 135°
2026-04-16 08:35 -2.44546 38.31226 22603 ft 406 kts 135°
2026-04-16 08:35 -2.46556 38.33233 23004 ft 408 kts 135°
2026-04-16 08:36 -2.48569 38.35244 23415 ft 410 kts 135°
2026-04-16 08:36 -2.50595 38.37267 23782 ft 412 kts 135°
2026-04-16 08:36 -2.52633 38.39301 24112 ft 415 kts 135°
2026-04-16 08:36 -2.54673 38.41338 24452 ft 417 kts 135°
2026-04-16 08:37 -2.56741 38.43404 24767 ft 420 kts 135°
2026-04-16 08:37 -2.58809 38.45471 25090 ft 422 kts 135°
2026-04-16 08:37 -2.60893 38.47552 25414 ft 424 kts 135°
2026-04-16 08:37 -2.62961 38.49618 25725 ft 427 kts 135°
2026-04-16 08:38 -2.65064 38.51719 26041 ft 429 kts 135°
2026-04-16 08:38 -2.67175 38.53828 26376 ft 431 kts 135°
2026-04-16 08:38 -2.69316 38.55970 26685 ft 434 kts 135°
2026-04-16 08:38 -2.71454 38.58110 26981 ft 437 kts 136°
2026-04-16 08:39 -2.73612 38.60266 27288 ft 439 kts 136°
2026-04-16 08:39 -2.75772 38.62424 27585 ft 441 kts 136°
2026-04-16 08:39 -2.77946 38.64597 27891 ft 443 kts 136°
2026-04-16 08:39 -2.80132 38.66781 28213 ft 445 kts 136°
2026-04-16 08:40 -2.84539 38.71183 28360 ft 447 kts 136°
2026-04-16 08:40 -2.86747 38.73387 28043 ft 446 kts 136°
2026-04-16 08:40 -2.88932 38.75569 27992 ft 441 kts 136°
2026-04-16 08:41 -2.91096 38.77729 28183 ft 443 kts 136°
2026-04-16 08:41 -2.93284 38.79914 28143 ft 443 kts 136°
2026-04-16 08:41 -2.95470 38.82097 27728 ft 443 kts 136°
2026-04-16 08:41 -2.97620 38.84242 26976 ft 445 kts 136°
2026-04-16 08:42 -2.99827 38.86445 26355 ft 444 kts 136°
2026-04-16 08:42 -3.01992 38.88605 25723 ft 439 kts 136°
2026-04-16 08:42 -3.04156 38.90763 25116 ft 435 kts 136°
2026-04-16 08:42 -3.06281 38.92883 24519 ft 430 kts 135°
2026-04-16 08:43 -3.08396 38.94992 23908 ft 426 kts 135°
2026-04-16 08:43 -3.10488 38.97079 23274 ft 422 kts 135°
2026-04-16 08:43 -3.12561 38.99147 22572 ft 417 kts 135°
2026-04-16 08:43 -3.14604 39.01184 21881 ft 413 kts 135°
2026-04-16 08:44 -3.16630 39.03205 21181 ft 409 kts 135°
2026-04-16 08:44 -3.18637 39.05205 20487 ft 406 kts 135°
2026-04-16 08:44 -3.20629 39.07190 19778 ft 403 kts 134°
2026-04-16 08:44 -3.22606 39.09159 19107 ft 399 kts 134°
2026-04-16 08:45 -3.24569 39.11113 18414 ft 396 kts 134°
2026-04-16 08:45 -3.26523 39.13039 17643 ft 394 kts 135°
2026-04-16 08:45 -3.28483 39.14931 16925 ft 389 kts 135°
2026-04-16 08:45 -3.29778 39.16169 16434 ft 386 kts 135°
2026-04-16 08:46 -3.31705 39.18007 15704 ft 382 kts 135°
2026-04-16 08:46 -3.33620 39.19836 15026 ft 377 kts 135°
2026-04-16 08:46 -3.35516 39.21647 14316 ft 374 kts 135°
2026-04-16 08:46 -3.37388 39.23437 13600 ft 371 kts 135°
2026-04-16 08:47 -3.39248 39.25218 12849 ft 368 kts 135°
2026-04-16 08:47 -3.41086 39.26986 12157 ft 363 kts 135°
2026-04-16 08:47 -3.42874 39.28705 11454 ft 360 kts 135°
2026-04-16 08:47 -3.44670 39.30434 10749 ft 356 kts 136°
2026-04-16 08:48 -3.46464 39.32158 10190 ft 348 kts 136°
2026-04-16 08:48 -3.48145 39.33773 9996 ft 330 kts 136°
2026-04-16 08:48 -3.49745 39.35309 9927 ft 307 kts 135°
2026-04-16 08:48 -3.51237 39.36744 9922 ft 291 kts 135°
2026-04-16 08:49 -3.52713 39.38162 9921 ft 296 kts 136°
2026-04-16 08:49 -3.54201 39.39590 9926 ft 295 kts 136°
2026-04-16 08:49 -3.55679 39.41004 9920 ft 295 kts 136°
2026-04-16 08:49 -3.57169 39.42430 9923 ft 296 kts 136°
2026-04-16 08:50 -3.58651 39.43853 9923 ft 296 kts 136°
2026-04-16 08:50 -3.60139 39.45280 9919 ft 296 kts 136°
2026-04-16 08:50 -3.60634 39.45753 9927 ft 296 kts 136°
2026-04-16 08:51 -3.61946 39.47010 9922 ft 296 kts 136°
2026-04-16 08:51 -3.63414 39.48419 9918 ft 296 kts 136°
2026-04-16 08:51 -3.64901 39.49848 9918 ft 296 kts 136°
2026-04-16 08:51 -3.66408 39.51293 9926 ft 296 kts 136°
2026-04-16 08:52 -3.67874 39.52696 9915 ft 295 kts 136°
2026-04-16 08:52 -3.69365 39.54125 9692 ft 293 kts 136°
2026-04-16 08:52 -3.70814 39.55513 9267 ft 290 kts 136°
2026-04-16 08:52 -3.72274 39.56918 8705 ft 289 kts 136°
2026-04-16 08:53 -3.73716 39.58307 8117 ft 287 kts 136°
2026-04-16 08:53 -3.75142 39.59682 7548 ft 284 kts 137°
2026-04-16 08:53 -3.76559 39.61049 6995 ft 282 kts 137°
2026-04-16 08:53 -3.78010 39.62280 6797 ft 265 kts 147°
2026-04-16 08:54 -3.79580 39.63171 6402 ft 256 kts 158°
2026-04-16 08:54 -3.81227 39.63834 5896 ft 254 kts 161°
2026-04-16 08:54 -3.82853 39.64461 5478 ft 248 kts 161°
2026-04-16 08:54 -3.84457 39.65097 5045 ft 244 kts 161°
2026-04-16 08:55 -3.85981 39.65725 4835 ft 232 kts 160°
2026-04-16 08:55 -3.87470 39.66353 4561 ft 234 kts 160°
2026-04-16 08:55 -3.88955 39.66932 4246 ft 226 kts 169°
2026-04-16 08:55 -3.90469 39.66820 3964 ft 213 kts 203°
2026-04-16 08:56 -3.91596 39.65917 3669 ft 209 kts 234°
2026-04-16 08:56 -3.92028 39.64540 3398 ft 218 kts 266°
2026-04-16 08:56 -3.91615 39.63067 3091 ft 223 kts 299°
2026-04-16 08:56 -3.90507 39.61989 2816 ft 224 kts 322°
2026-04-16 08:57 -3.89239 39.61060 2538 ft 230 kts 321°
2026-04-16 08:57 -3.87959 39.60122 2280 ft 227 kts 322°
2026-04-16 08:57 -3.86544 39.59471 2213 ft 228 kts 348°
2026-04-16 08:57 -3.84934 39.59565 2228 ft 232 kts 13°
2026-04-16 08:58 -3.83450 39.60148 2203 ft 232 kts 36°
2026-04-16 08:58 -3.82459 39.61338 2216 ft 224 kts 70°
2026-04-16 08:58 -3.82227 39.62841 2194 ft 215 kts 102°
2026-04-16 08:58 -3.82715 39.64181 2221 ft 196 kts 120°
2026-04-16 08:59 -3.83264 39.65355 2195 ft 177 kts 120°
2026-04-16 08:59 -3.83777 39.66469 2206 ft 180 kts 118°
2026-04-16 08:59 -3.84409 39.67519 2141 ft 171 kts 138°
2026-04-16 08:59 -3.85398 39.68031 2123 ft 153 kts 175°
2026-04-16 09:00 -3.86414 39.67796 2074 ft 152 kts 208°
2026-04-16 09:00 -3.87335 39.67303 2084 ft 145 kts 207°
2026-04-16 09:00 -3.88301 39.66936 1987 ft 153 kts 195°
2026-04-16 09:00 -3.89323 39.66650 1995 ft 151 kts 195°
2026-04-16 09:01 -3.91312 39.66102 1981 ft 147 kts 197°
2026-04-16 09:01 -3.92260 39.65715 1982 ft 149 kts 204°
2026-04-16 09:01 -3.93205 39.65220 1971 ft 156 kts 207°
2026-04-16 09:02 -3.94120 39.64691 1756 ft 146 kts 208°
2026-04-16 09:02 -3.95004 39.64193 1588 ft 150 kts 207°
2026-04-16 09:02 -3.95879 39.63705 1389 ft 140 kts 208°
2026-04-16 09:02 -3.96704 39.63232 1221 ft 129 kts 208°
2026-04-16 09:03 -3.97508 39.62777 1068 ft 144 kts 207°
2026-04-16 09:03 -3.98389 39.62296 874 ft 145 kts 209°
2026-04-16 09:03 -3.99242 39.61806 625 ft 137 kts 209°
2026-04-16 09:03 -4.00101 39.61336 452 ft 152 kts 210°
2026-04-16 09:04 -4.00997 39.60824 309 ft 141 kts 212°
2026-04-16 09:04 -4.01816 39.60362 221 ft 128 kts 208°
2026-04-16 09:04 -4.02465 39.59999 216 ft 69 kts 209°
2026-04-16 09:04 -4.02638 39.59913 214 ft 9 kts 188°
2026-04-16 09:05 -4.02693 39.59931 216 ft 9 kts 159°
2026-04-16 09:05 -4.02754 39.59957 216 ft 10 kts 152°
2026-04-16 09:05 -4.02821 39.59987 217 ft 11 kts 172°
2026-04-16 09:05 -4.02888 39.59960 220 ft 11 kts 211°
2026-04-16 09:06 -4.02958 39.59960 218 ft 10 kts 156°
2026-04-16 09:06 -4.03000 39.60017 216 ft 6 kts 119°
2026-04-16 09:06 -4.03022 39.60057 222 ft 8 kts 119°
2026-04-16 09:06 -4.03053 39.60104 221 ft 8 kts 127°
2026-04-16 09:07 -4.03095 39.60142 220 ft 8 kts 153°
2026-04-16 09:07 -4.03149 39.60130 216 ft 8 kts 197°
2026-04-16 09:07 -4.03181 39.60157 209 ft 6 kts 123°
2026-04-16 09:07 -4.03199 39.60188 212 ft 2 kts 120°
2026-04-16 09:08 -4.03207 39.60202 214 ft 1 kts 119°
2026-04-16 09:08 -4.03211 39.60210 218 ft 0 kts 118°